PulseSat

PulseSat

MOLNIYA 1-87

Last updated on April 19, 2019, 2:59 a.m. UTC

1 22949U 93079A   19108.63182149  .00000419  00000-0  22501-1 0  9992
2 22949  63.2922 221.4905 7026673 290.5868  10.7549  2.02846481185841
UTC
Height (km)
Latitude
Longitude
Inclination
Orbital Period

Next 30 passes for location: Hong Kong

Rise time Rise Azimuth (degrees) Set time Set Azimuth (degrees) Duration Max altitude (degrees)

No matching passes for this satellites

PulseSat

PulseSat is the new satellites software and hardware trackering solution by Pulsely.
Satellite Two Line Element Set source: US Air Force Space Command

Download PulseSat for iOS
© 2017 Pulsely Limited